Vorticity
18 14 13 6 7 7 9 11 15 15 13 11 1 13 11 28 25 4 -1 6 22 21 24 13 11 12 4
18 18 19 11 13 13 10 9 11 14 18 15 15 15 11 6 12 21 28 22 12 15 12 9 8 5 6
2 8 8 8 -0 9 7 8 8 9 7 7 8 7 13 9 8 7 6 5 4 3 1 1 1 -8 15
8 5 6 6 6 5 6 7 7 7 7 8 8 9 10 9 6 11 15 13 7 7 15 13 15 13 8
6 6 6 7 7 8 8 9 9 9 8 8 8 9 11 11 11 11 9 9 9 9 8 7 7 7 7
9 9 10 10 11 10 10 10 10 11 11 11 11 11 11 11 13 13 13 13 13 12 11 12 12 12 12
11 11 11 10 10 11 11 12 12 13 13 13 14 14 13 12 11 11 11 11 13 14 14 13 14 15 16
11 10 10 10 10 11 11 11 13 13 13 13 12 12 11 10 10 11 10 10 11 13 13 14 14 16 16
10 10 10 10 10 10 11 11 11 12 12 12 11 11 11 13 13 12 10 9 8 8 10 11 12 11 10
11 11 10 9 9 8 9 9 9 11 10 12 12 12 12 12 12 11 10 10 9 8 7 7 7 8 9
10 9 8 8 8 8 8 9 10 10 10 11 11 11 11 13 13 11 11 10 10 10 10 10 9 7 7
9 9 8 8 8 9 10 10 9 8 9 9 10 11 11 12 13 11 11 11 11 11 10 11 10 9 9
9 9 9 9 10 11 10 10 10 9 9 10 10 11 12 13 14 15 13 11 11 13 13 11 10 11 11
11 11 10 11 10 10 10 10 10 10 10 10 11 13 13 13 14 17 14 12 11 11 9 11 13 13 12
10 10 11 11 10 10 10 10 10 10 11 11 10 11 13 14 15 15 15 16 16 14 12 10 11 13 14
12 12 11 10 10 10 9 10 11 11 12 12 11 11 11 13 13 13 14 15 13 12 13 14 14 16 14
11 11 11 10 9 9 10 10 11 12 12 11 11 10 11 12 12 16 15 14 12 13 14 14 14 16 13
Height
3072 3070 3069 3068 3067 3066 3064 3062 3060 3059 3057 3055 3054 3052 3050 3049 3050 3052 3053 3054 3054 3056 3058 3059 3059 3059 3060
3068 3067 3064 3063 3062 3061 3060 3058 3056 3054 3052 3050 3048 3047 3045 3045 3044 3043 3044 3046 3048 3049 3049 3051 3051 3052 3053
3065 3063 3061 3060 3059 3057 3055 3054 3052 3050 3048 3045 3044 3042 3041 3039 3039 3039 3039 3040 3041 3041 3042 3043 3044 3044 3045
3061 3059 3057 3056 3054 3052 3050 3048 3046 3044 3042 3040 3038 3037 3036 3035 3034 3034 3034 3033 3033 3032 3033 3033 3034 3035 3037
3056 3054 3052 3050 3048 3046 3044 3042 3040 3037 3035 3033 3031 3029 3028 3027 3026 3026 3025 3025 3024 3024 3025 3025 3026 3027 3028
3051 3049 3047 3044 3042 3040 3038 3036 3034 3032 3029 3027 3025 3022 3021 3019 3017 3016 3016 3015 3015 3016 3016 3016 3017 3017 3018
3045 3043 3041 3038 3036 3034 3032 3030 3027 3025 3023 3020 3018 3016 3014 3012 3011 3010 3009 3008 3008 3008 3008 3008 3007 3007 3008
3039 3037 3035 3032 3030 3028 3025 3023 3020 3018 3016 3014 3011 3010 3008 3006 3004 3003 3002 3001 3000 3000 2999 2999 3000 3000 3000
3033 3031 3029 3027 3024 3021 3019 3016 3014 3012 3010 3008 3005 3003 3002 3000 2998 2997 2996 2995 2994 2993 2993 2993 2993 2994 2994
3028 3025 3023 3021 3018 3015 3012 3010 3007 3005 3003 3002 2999 2996 2994 2993 2992 2991 2989 2989 2988 2987 2986 2985 2985 2985 2986
3021 3019 3016 3014 3011 3008 3006 3003 3001 2998 2996 2994 2992 2989 2987 2985 2984 2982 2981 2979 2978 2978 2977 2977 2977 2977 2978
3015 3012 3010 3007 3004 3002 2999 2997 2994 2991 2988 2986 2984 2981 2979 2977 2976 2974 2971 2970 2968 2968 2968 2967 2967 2967 2968
3009 3006 3003 3000 2998 2995 2992 2990 2987 2983 2981 2978 2976 2973 2971 2969 2969 2967 2964 2962 2959 2958 2957 2957 2957 2957 2958
3002 2999 2996 2993 2991 2988 2985 2982 2979 2976 2972 2970 2968 2965 2963 2961 2960 2959 2955 2953 2953 2950 2947 2947 2947 2947 2947
2995 2992 2989 2986 2983 2980 2978 2975 2972 2968 2965 2961 2957 2956 2955 2953 2951 2949 2947 2945 2943 2941 2938 2938 2938 2937 2937
2988 2985 2982 2979 2976 2973 2970 2967 2964 2961 2957 2953 2949 2946 2944 2945 2943 2940 2938 2936 2933 2931 2929 2928 2929 2928 2925
2981 2978 2975 2972 2969 2965 2963 2960 2957 2954 2949 2945 2941 2937 2936 2937 2935 2933 2929 2926 2924 2922 2920 2918 2917 2919 2915